(456122) = 2006 DZ54

Discovered at Kitt Peak on 2006-02-24 by Spacewatch.

Orbit

Orbit type: Main Belt

Note: WebGL enabled browser required.

epoch2023-09-13.0
epoch JD2460200.5
perihelion date2022-08-10.64910
perihelion JD2459802.14910
argument of perihelion (°)244.67267
ascending node (°)358.04758
inclination (°)5.40687
eccentricity0.1452879
perihelion distance (AU)2.5720870
Tisserand w.r.t. Jupiter3.2
ΔV w.r.t. Earth (km/sec)10.2
semimajor axis (AU)3.0093021
mean anomaly (°)75.20920
mean daily motion (°/day)0.18880140
aphelion distance (AU)3.447
period (years)5.22
P-vector [x]-0.45819849
P-vector [y]-0.77787253
P-vector [z]-0.43007960
Q-vector [x]0.88884410
Q-vector [y]-0.40273508
Q-vector [z]-0.21854203
absolute magnitude16.87
phase slope0.15
uncertainty0
referenceMPO 780116
observations used148
oppositions12
arc length (days)6436
first opposition used2006
last opposition used2023
residual rms (arc-secs)0.84
perturbers coarse indicatorM-v
perturbers precise indicator003Ek
first observation date used2006-02-24.0
last observation date used2023-10-09.0
computer nameMPCLINUX
JD of orbit computation2457435.096280
perihelion JD uncertainty (days)6.2415E-04
argument of perihelion uncertainty (°)1.1329E-04
ascending node uncertainty (°)6.9529E-05
inclination uncertainty (°)8.8295E-06
eccentricity uncertainty 1.6894E-07
perihelion distance uncertainty (AU)5.5969E-07
Minimum Orbit Intersection Distances (in AU)
for orbit epoch: 2460200.5, reference: E2023-TC9
Mercury2.10849
Venus1.85192
Earth1.56458
Mars1.0291
Jupiter1.60542
Saturn5.67068
Uranus15.4505
Neptune26.4522

Observations

155 total observations over interval: 2006 02 24.34736 – 2023 10 09.260785
These data are available for download (format description).

